[[{"header":{"parameterUnit":"m.s-1","parameterCategory":2,"la1":30.2992,"la2":30.254,"lo1":-89.0895,"lo2":-89.0443,"dy":0.0025,"dx":0.0025,"nx":19,"ny":19,"refTime":"2026-04-21T03:00:00:Z","depth":"0","parameterNumber":2,"parameterNumberName":"U-component_of_CURRENTS"},"data":[0,0,0,-0.2647,-0.2651,-0.2766,-0.2766,-0.2817,-0.2817,0,0,0,0,0,0,0,0,0,0,0,-0.258,-0.2581,-0.2647,-0.2651,-0.2766,-0.2766,-0.2817,-0.2817,0,0,0,0,0,0,0,0,0,0,0,-0.258,-0.2581,-0.2581,-0.2652,-0.2766,-0.2766,-0.2817,-0.2748,0,0,0,0,0,0,0,0,0,0,-0.2646,-0.2601,-0.258,-0.2581,-0.2652,-0.2766,-0.2766,-0.2746,-0.2752,-0.2744,0,-0.2763,0,-0.2812,-0.2821,-0.2821,0,0,0,-0.2628,-0.2596,-0.2641,-0.2582,-0.2654,-0.2766,-0.2708,-0.275,-0.2758,-0.2753,-0.2764,-0.2768,-0.2813,-0.2821,-0.2821,-0.2956,-0.2957,0,0,-0.2622,-0.2587,-0.2636,-0.2646,-0.2684,-0.2704,-0.2712,-0.2755,-0.2752,-0.2765,-0.277,-0.2814,-0.2821,-0.2822,-0.2955,-0.2957,0,0,0,-0.2619,-0.2582,-0.2627,-0.2642,-0.2683,-0.2708,-0.2716,-0.275,-0.2769,-0.2771,-0.2815,-0.2822,-0.2822,-0.2954,-0.2956,-0.3021,0,0,0,-0.2614,-0.2583,-0.2624,-0.2602,-0.2683,-0.2733,-0.2709,-0.2765,-0.2773,-0.2815,-0.2822,-0.2823,-0.2953,-0.2955,-0.3016,-0.306,0,0,0,-0.2575,-0.2579,-0.2595,-0.26,-0.2666,-0.2734,-0.2754,-0.2768,-0.2801,-0.2821,-0.2823,-0.2952,-0.2954,-0.3012,-0.3053,-0.3106,0,0,0,-0.2531,-0.2576,-0.2594,-0.2675,-0.2666,-0.2796,-0.2755,-0.2836,-0.2863,-0.2822,-0.2953,-0.2955,-0.3011,-0.3049,-0.3102,-0.2884,-0.2887,0,0,-0.2572,-0.258,-0.2638,-0.266,-0.2789,-0.2778,-0.2904,-0.2913,-0.2897,-0.2924,-0.2928,-0.3018,-0.3053,-0.3105,-0.3037,-0.3034,0,0,0,-0.2645,-0.2665,-0.2715,-0.2792,-0.2886,-0.2949,-0.2974,-0.2997,-0.3034,-0.2931,-0.3054,-0.3075,-0.3104,-0.2966,-0.2965,-0.2802,-0.2968,-0.2967,-0.2967,-0.2579,-0.2679,-0.277,-0.2881,-0.2963,-0.3072,-0.3137,-0.3165,-0.312,-0.316,-0.3153,-0.3276,-0.313,-0.3126,-0.2963,-0.3175,-0.3175,-0.3175,-0.3176,-0.2614,-0.2669,-0.2788,-0.2906,-0.3013,-0.31,-0.3248,-0.3259,-0.3347,-0.3278,-0.3302,-0.3074,-0.3128,-0.2954,-0.318,-0.318,-0.3179,-0.3178,-0.3178,-0.2543,-0.259,-0.2677,-0.2844,-0.2965,-0.3099,-0.3236,-0.3345,-0.3397,-0.3453,-0.3261,-0.3256,-0.3079,-0.3433,-0.3433,-0.3434,-0.3434,-0.3435,-0.3435,-0.243,-0.2533,-0.2608,-0.2777,-0.2855,-0.2998,-0.3226,-0.332,-0.3359,-0.3338,-0.3335,-0.3094,-0.3355,-0.3317,-0.3442,-0.3441,-0.344,-0.3439,-0.3439,-0.2351,-0.2404,-0.2508,-0.2591,-0.2783,-0.2811,-0.307,-0.3162,-0.328,-0.3249,-0.2997,-0.3275,-0.3234,-0.323,-0.319,-0.3276,-0.3276,-0.3276,-0.3276,-0.2263,-0.2311,-0.2415,-0.2513,-0.2641,-0.2729,-0.267,-0.2697,-0.2752,-0.2682,-0.2846,-0.27,-0.2714,-0.2636,-0.2646,-0.2592,-0.2525,-0.2524,-0.2523,-0.2199,-0.2254,-0.227,-0.2409,-0.2552,-0.256,-0.2342,-0.2164,-0.2279,-0.2487,-0.2675,-0.2706,-0.249,-0.2525,-0.2398,-0.2425,-0.2335,0,0]},{"header":{"parameterUnit":"m.s-1","parameterCategory":2,"la1":30.2992,"la2":30.254,"lo1":-89.0895,"lo2":-89.0443,"dy":0.0025,"dx":0.0025,"nx":19,"ny":19,"refTime":"2026-04-21T03:00:00:Z","depth":"0","parameterNumber":3,"parameterNumberName":"V-component_of_CURRENTS"},"data":[0,0,0,-0.0552,-0.0551,-0.0475,-0.0474,-0.0345,-0.0344,0,0,0,0,0,0,0,0,0,0,0,-0.0579,-0.0579,-0.0552,-0.0551,-0.0475,-0.0474,-0.0346,-0.0344,0,0,0,0,0,0,0,0,0,0,0,-0.0579,-0.0579,-0.0578,-0.055,-0.0475,-0.0474,-0.0346,-0.0408,0,0,0,0,0,0,0,0,0,0,-0.0484,-0.0512,-0.0579,-0.0578,-0.055,-0.0475,-0.0474,-0.0411,-0.0404,-0.0375,0,-0.0373,0,-0.036,-0.0336,-0.0336,0,0,0,-0.0537,-0.0518,-0.0506,-0.0578,-0.055,-0.0475,-0.0505,-0.0407,-0.0399,-0.0365,-0.0371,-0.0366,-0.0358,-0.0335,-0.0335,-0.0289,-0.0289,0,0,-0.0541,-0.0551,-0.0512,-0.0502,-0.0541,-0.0508,-0.0503,-0.0402,-0.0393,-0.0371,-0.0363,-0.0356,-0.0335,-0.0334,-0.0288,-0.0289,0,0,0,-0.0562,-0.0554,-0.0545,-0.0507,-0.0498,-0.0506,-0.05,-0.0397,-0.0397,-0.0362,-0.0355,-0.0334,-0.0333,-0.0288,-0.0288,-0.04,0,0,0,-0.0564,-0.0568,-0.0548,-0.0551,-0.0501,-0.045,-0.0497,-0.0404,-0.0392,-0.0355,-0.0334,-0.0331,-0.0287,-0.0288,-0.0396,-0.0459,0,0,0,-0.058,-0.0569,-0.0566,-0.0552,-0.0526,-0.0451,-0.0444,-0.0401,-0.0388,-0.0336,-0.0331,-0.0287,-0.0288,-0.0392,-0.0452,-0.0437,0,0,0,-0.0584,-0.0625,-0.0567,-0.0602,-0.0528,-0.0532,-0.0445,-0.0434,-0.0403,-0.0333,-0.0287,-0.0288,-0.0391,-0.0448,-0.0434,-0.0309,-0.0313,0,0,-0.0651,-0.0632,-0.0657,-0.0605,-0.0638,-0.0541,-0.0558,-0.0479,-0.0401,-0.0314,-0.0313,-0.0397,-0.0452,-0.0436,-0.0364,-0.0366,0,0,0,-0.0689,-0.0708,-0.0708,-0.0703,-0.0675,-0.0645,-0.0559,-0.0514,-0.0443,-0.0386,-0.0385,-0.0416,-0.0402,-0.032,-0.0323,-0.0024,-0.0293,-0.0293,-0.0292,-0.0771,-0.0765,-0.0816,-0.0802,-0.0787,-0.0715,-0.0684,-0.0597,-0.0513,-0.05,-0.0497,-0.0554,-0.0468,-0.0468,-0.0164,-0.0477,-0.0478,-0.0478,-0.0478,-0.0887,-0.0925,-0.0903,-0.0956,-0.0903,-0.0893,-0.0789,-0.0726,-0.0644,-0.0583,-0.0562,-0.0431,-0.0477,-0.0151,-0.0485,-0.0484,-0.0483,-0.0483,-0.0482,-0.0951,-0.0977,-0.1001,-0.1062,-0.1078,-0.1014,-0.1028,-0.0911,-0.0755,-0.0747,-0.0578,-0.0573,-0.0289,-0.0711,-0.0712,-0.0712,-0.0712,-0.0712,-0.0712,-0.1006,-0.1039,-0.1131,-0.1179,-0.1231,-0.1254,-0.116,-0.1081,-0.0845,-0.0691,-0.0688,-0.026,-0.0623,-0.0617,-0.0716,-0.0716,-0.0715,-0.0715,-0.0714,-0.1084,-0.1104,-0.1262,-0.1341,-0.1471,-0.153,-0.1412,-0.1133,-0.0974,-0.0811,-0.0213,-0.0622,-0.056,-0.0555,-0.0545,-0.062,-0.062,-0.062,-0.062,-0.1126,-0.1151,-0.1394,-0.1569,-0.1703,-0.1679,-0.1549,-0.1143,-0.0471,-0.0089,-0.0007,0.0109,0.0092,0.0199,0.0187,0.0216,0.0335,0.0337,0.0338,-0.1168,-0.1259,-0.1452,-0.1654,-0.1828,-0.1819,-0.1617,-0.1016,-0.001,0.0404,0.0381,0.0341,0.0536,0.0486,0.0672,0.0632,0.0684,0,0]}],[{"header":{"parameterUnit":"m.s-1","parameterCategory":2,"la1":30.2992,"la2":30.254,"lo1":-89.0895,"lo2":-89.0443,"dy":0.0025,"dx":0.0025,"nx":19,"ny":19,"refTime":"2026-04-21T03:00:00:Z","depth":"2","parameterNumber":2,"parameterNumberName":"U-component_of_CURRENTS"},"data":[0,0,0,-0.2003,-0.2009,-0.2223,-0.2223,-0.2268,-0.2268,0,0,0,0,0,0,0,0,0,0,0,-0.194,-0.1943,-0.2002,-0.2009,-0.2222,-0.2223,-0.2268,-0.2268,0,0,0,0,0,0,0,0,0,0,0,-0.1939,-0.1942,-0.1946,-0.201,-0.2222,-0.2223,-0.2268,-0.2155,0,0,0,0,0,0,0,0,0,0,-0.1972,-0.196,-0.1942,-0.1946,-0.2012,-0.2222,-0.2223,-0.2152,-0.2162,-0.2117,0,-0.2201,0,-0.2243,-0.2269,-0.2269,0,0,0,-0.1973,-0.1952,-0.2016,-0.1946,-0.2014,-0.2222,-0.2116,-0.2159,-0.217,-0.213,-0.2202,-0.2205,-0.2244,-0.227,-0.227,-0.238,-0.2382,0,0,-0.1962,-0.1955,-0.201,-0.2026,-0.2131,-0.211,-0.2123,-0.2168,-0.2196,-0.2202,-0.2207,-0.2245,-0.227,-0.227,-0.2379,-0.2381,0,0,0,-0.1952,-0.1947,-0.2014,-0.2022,-0.2085,-0.2117,-0.2132,-0.2194,-0.2221,-0.2208,-0.2245,-0.227,-0.227,-0.2378,-0.238,-0.2492,0,0,0,-0.1943,-0.1944,-0.201,-0.2004,-0.2087,-0.2174,-0.2157,-0.2218,-0.2225,-0.2245,-0.227,-0.227,-0.2377,-0.2379,-0.2486,-0.2595,0,0,0,-0.1919,-0.194,-0.1986,-0.2004,-0.2113,-0.2175,-0.2204,-0.2221,-0.2248,-0.2269,-0.227,-0.2376,-0.2379,-0.2481,-0.2585,-0.2663,0,0,0,-0.187,-0.1958,-0.1988,-0.2074,-0.2112,-0.2201,-0.2205,-0.2267,-0.2291,-0.227,-0.2377,-0.238,-0.248,-0.2578,-0.2657,-0.2305,-0.2307,0,0,-0.1937,-0.1967,-0.2005,-0.2036,-0.2112,-0.2165,-0.2277,-0.232,-0.2314,-0.2336,-0.2341,-0.2488,-0.2584,-0.2662,-0.2455,-0.2452,0,0,0,-0.1992,-0.2035,-0.2056,-0.2121,-0.2176,-0.2301,-0.2339,-0.2404,-0.2494,-0.2353,-0.251,-0.2569,-0.2613,-0.2387,-0.2386,-0.2392,-0.2392,-0.2391,-0.2391,-0.2012,-0.2042,-0.2085,-0.2151,-0.2244,-0.2388,-0.2521,-0.2625,-0.2544,-0.2635,-0.2672,-0.2837,-0.2595,-0.2591,-0.2655,-0.2655,-0.2656,-0.2656,-0.2656,-0.2029,-0.2048,-0.2111,-0.2186,-0.2322,-0.2439,-0.2693,-0.2753,-0.2942,-0.2844,-0.2878,-0.2533,-0.2595,-0.2666,-0.2664,-0.2663,-0.2662,-0.2661,-0.266,-0.1976,-0.2006,-0.2058,-0.2177,-0.2325,-0.2497,-0.2769,-0.2968,-0.3049,-0.3156,-0.2829,-0.282,-0.2917,-0.3107,-0.3108,-0.3108,-0.3109,-0.311,-0.311,-0.1928,-0.1982,-0.2034,-0.2176,-0.2247,-0.2482,-0.283,-0.2973,-0.3003,-0.2978,-0.2973,-0.299,-0.2975,-0.2944,-0.3123,-0.3121,-0.3119,-0.3118,-0.3117,-0.1877,-0.1939,-0.2008,-0.2078,-0.2256,-0.2375,-0.2711,-0.2779,-0.2934,-0.2829,-0.2866,-0.2868,-0.2807,-0.28,-0.2765,-0.2889,-0.2889,-0.2889,-0.2889,-0.1809,-0.1858,-0.1939,-0.2021,-0.2194,-0.2332,-0.2329,-0.2339,-0.244,-0.245,-0.247,-0.2246,-0.2263,-0.2162,-0.217,-0.2118,-0.2075,-0.2074,-0.2073,-0.1704,-0.1793,-0.1784,-0.1929,-0.2112,-0.2204,-0.2008,-0.1788,-0.1832,-0.2052,-0.2446,-0.2811,-0.2522,-0.2533,-0.2404,-0.2407,-0.2334,0,0]},{"header":{"parameterUnit":"m.s-1","parameterCategory":2,"la1":30.2992,"la2":30.254,"lo1":-89.0895,"lo2":-89.0443,"dy":0.0025,"dx":0.0025,"nx":19,"ny":19,"refTime":"2026-04-21T03:00:00:Z","depth":"2","parameterNumber":3,"parameterNumberName":"V-component_of_CURRENTS"},"data":[0,0,0,-0.007,-0.007,-0.0052,-0.0052,0.0064,0.0066,0,0,0,0,0,0,0,0,0,0,0,-0.0112,-0.0113,-0.007,-0.007,-0.0052,-0.0052,0.0064,0.0066,0,0,0,0,0,0,0,0,0,0,0,-0.0112,-0.0113,-0.0114,-0.007,-0.0052,-0.0052,0.0064,0.0028,0,0,0,0,0,0,0,0,0,0,-0.0001,-0.0074,-0.0112,-0.0114,-0.007,-0.0052,-0.0052,0.0025,0.003,0.0082,0,0.005,0,0.0077,0.0075,0.0076,0,0,0,-0.0066,-0.0079,-0.0049,-0.0114,-0.007,-0.0052,-0.0059,0.0027,0.0033,0.0089,0.0052,0.0056,0.0079,0.0076,0.0077,0.0148,0.0148,0,0,-0.0067,-0.012,-0.0053,-0.0047,-0.0107,-0.006,-0.0058,0.003,0.0005,0.0052,0.006,0.0081,0.0077,0.0078,0.0149,0.0148,0,0,0,-0.0072,-0.0122,-0.0096,-0.0052,-0.0047,-0.0059,-0.0058,0.0,0.0014,0.0061,0.0082,0.0078,0.008,0.0149,0.0148,-0.0009,0,0,0,-0.0073,-0.0123,-0.0097,-0.0129,-0.005,-0.0039,-0.009,0.0007,0.0019,0.0082,0.0078,0.0081,0.0149,0.0149,-0.0004,-0.0106,0,0,0,-0.0105,-0.0126,-0.0132,-0.0132,-0.0118,-0.004,-0.0022,0.0009,0.0033,0.0076,0.0081,0.0149,0.0149,0.0,-0.0097,-0.0099,0,0,0,-0.0144,-0.0207,-0.0136,-0.0188,-0.0119,-0.0064,-0.0023,0.0,0.0027,0.0079,0.0149,0.0148,0.0002,-0.0091,-0.0094,0.0034,0.0022,0,0,-0.0238,-0.0221,-0.0242,-0.0175,-0.015,-0.0064,-0.0064,-0.0027,0.0039,0.0129,0.013,-0.0006,-0.0096,-0.0098,-0.0006,-0.0016,0,0,0,-0.0277,-0.0306,-0.0278,-0.0259,-0.017,-0.0145,-0.0063,-0.0045,-0.0029,0.0053,0.0025,-0.0027,-0.0023,0.0065,0.0057,0.0145,0.0145,0.0145,0.0145,-0.0428,-0.0375,-0.0397,-0.0326,-0.0292,-0.0199,-0.02,-0.0159,-0.006,-0.0092,-0.0132,-0.0216,-0.0123,-0.0128,-0.0084,-0.0085,-0.0086,-0.0086,-0.0086,-0.0537,-0.0559,-0.0497,-0.0523,-0.0446,-0.0437,-0.0351,-0.0325,-0.0312,-0.0241,-0.0227,-0.0078,-0.0146,-0.0098,-0.0096,-0.0094,-0.0093,-0.0092,-0.0092,-0.0609,-0.0631,-0.0653,-0.0686,-0.0703,-0.0616,-0.0676,-0.0606,-0.0476,-0.0502,-0.0306,-0.03,-0.0313,-0.0459,-0.046,-0.046,-0.0461,-0.0461,-0.0461,-0.0704,-0.0722,-0.0814,-0.0849,-0.0894,-0.0931,-0.0881,-0.0829,-0.0624,-0.0479,-0.0475,-0.034,-0.0328,-0.0331,-0.0469,-0.0467,-0.0467,-0.0466,-0.0465,-0.0801,-0.0839,-0.0987,-0.1065,-0.1168,-0.1232,-0.1151,-0.09,-0.0788,-0.0609,-0.0419,-0.0417,-0.0343,-0.0332,-0.0333,-0.0463,-0.0463,-0.0463,-0.0463,-0.0856,-0.0886,-0.1124,-0.1279,-0.1408,-0.1382,-0.1296,-0.0934,-0.0564,-0.0375,-0.0379,-0.0277,-0.0278,-0.0194,-0.0186,-0.0181,-0.0272,-0.0272,-0.0272,-0.0872,-0.099,-0.1152,-0.1353,-0.1517,-0.1526,-0.135,-0.0834,-0.0315,-0.0271,-0.041,-0.0438,-0.0292,-0.0292,-0.0158,-0.0148,-0.0137,0,0]}],[{"header":{"parameterUnit":"m.s-1","parameterCategory":2,"la1":30.2992,"la2":30.254,"lo1":-89.0895,"lo2":-89.0443,"dy":0.0025,"dx":0.0025,"nx":19,"ny":19,"refTime":"2026-04-21T03:00:00:Z","depth":"4","parameterNumber":2,"parameterNumberName":"U-component_of_CURRENTS"},"data":[0,0,0,-0.1025,-0.1027,-0.1108,-0.1108,-0.1188,-0.1188,0,0,0,0,0,0,0,0,0,0,0,-0.0996,-0.0996,-0.1025,-0.1027,-0.1108,-0.1108,-0.1187,-0.1188,0,0,0,0,0,0,0,0,0,0,0,-0.0995,-0.0996,-0.0997,-0.1028,-0.1108,-0.1108,-0.1187,-0.1132,0,0,0,0,0,0,0,0,0,0,-0.1056,-0.1036,-0.0996,-0.0997,-0.1028,-0.1108,-0.1108,-0.1129,-0.1135,-0.1145,0,-0.1161,0,-0.1178,-0.1193,-0.1193,0,0,0,-0.1025,-0.1031,-0.1051,-0.0997,-0.1029,-0.1108,-0.1071,-0.1133,-0.1139,-0.1152,-0.1162,-0.1165,-0.118,-0.1194,-0.1194,-0.1293,-0.1294,0,0,-0.1021,-0.1012,-0.1047,-0.1055,-0.1055,-0.1068,-0.1074,-0.1137,-0.1147,-0.1162,-0.1167,-0.1181,-0.1194,-0.1195,-0.1293,-0.1293,0,0,0,-0.1009,-0.1009,-0.1028,-0.1052,-0.107,-0.1071,-0.1077,-0.1144,-0.115,-0.1168,-0.1182,-0.1195,-0.1196,-0.1292,-0.1293,-0.1331,0,0,0,-0.1007,-0.1003,-0.1026,-0.1022,-0.1069,-0.1112,-0.1082,-0.1145,-0.1153,-0.1181,-0.1195,-0.1196,-0.1291,-0.1292,-0.1328,-0.137,0,0,0,-0.0991,-0.1001,-0.1011,-0.1021,-0.1057,-0.1112,-0.1122,-0.1147,-0.1161,-0.1194,-0.1196,-0.1291,-0.1292,-0.1326,-0.1365,-0.1465,0,0,0,-0.0978,-0.0988,-0.1011,-0.1035,-0.1056,-0.1112,-0.1121,-0.1165,-0.1193,-0.1195,-0.1292,-0.1293,-0.1326,-0.1363,-0.1461,-0.1267,0,0,0,-0.0977,-0.0988,-0.1002,-0.1025,-0.1067,-0.11,-0.1169,-0.1206,-0.1217,-0.1267,-0.127,-0.1329,-0.1365,-0.1464,-0.1342,0,0,0,0,-0.0994,-0.1,-0.102,-0.1054,-0.1101,-0.1172,-0.1209,-0.1245,-0.1305,-0.1241,-0.1344,-0.1367,-0.1428,-0.1303,-0.1299,-0.1299,-0.1299,-0.1298,-0.1298,-0.0965,-0.0997,-0.102,-0.107,-0.1126,-0.1222,-0.1291,-0.135,-0.1337,-0.1377,-0.1407,-0.1524,-0.1391,-0.1406,-0.1406,-0.1406,-0.1406,-0.1406,-0.1407,-0.094,-0.0936,-0.1016,-0.1044,-0.1142,-0.1209,-0.1367,-0.14,-0.153,-0.1475,-0.1532,-0.1362,-0.1411,-0.141,-0.1409,-0.1409,-0.1408,-0.1408,-0.1408,-0.0876,-0.0877,-0.0915,-0.0976,-0.1087,-0.1213,-0.1335,-0.1467,-0.1571,-0.1641,-0.1542,-0.1585,-0.1575,-0.1674,-0.1674,-0.1675,-0.1675,-0.1676,-0.1676,-0.0776,-0.0819,-0.0818,-0.0916,-0.0964,-0.1094,-0.1337,-0.1443,-0.1607,-0.1598,-0.1671,-0.1616,-0.1607,-0.1592,-0.1686,-0.1684,-0.1683,-0.1682,-0.1681,-0.0679,-0.0693,-0.0679,-0.0711,-0.0836,-0.0951,-0.1196,-0.1424,-0.1558,-0.1641,-0.159,-0.1592,-0.1579,-0.1573,-0.1555,-0.1642,-0.164,-0.1637,0,-0.0596,-0.0607,-0.0561,-0.0575,-0.0656,-0.0858,-0.101,-0.1207,-0.1427,-0.1376,-0.1545,-0.1475,-0.1479,-0.1448,-0.144,-0.1409,0,0,0,-0.054,-0.0519,-0.046,-0.0464,-0.0561,-0.0816,-0.1049,-0.1104,-0.1381,-0.149,-0.1585,-0.1599,-0.159,-0.1714,-0.1702,-0.1691,-0.1668,0,0]},{"header":{"parameterUnit":"m.s-1","parameterCategory":2,"la1":30.2992,"la2":30.254,"lo1":-89.0895,"lo2":-89.0443,"dy":0.0025,"dx":0.0025,"nx":19,"ny":19,"refTime":"2026-04-21T03:00:00:Z","depth":"4","parameterNumber":3,"parameterNumberName":"V-component_of_CURRENTS"},"data":[0,0,0,0.025,0.0252,0.0337,0.0337,0.0414,0.0414,0,0,0,0,0,0,0,0,0,0,0,0.022,0.022,0.025,0.0252,0.0337,0.0337,0.0413,0.0414,0,0,0,0,0,0,0,0,0,0,0,0.022,0.022,0.0221,0.0252,0.0337,0.0337,0.0413,0.0358,0,0,0,0,0,0,0,0,0,0,0.028,0.0249,0.022,0.0221,0.0253,0.0337,0.0337,0.0356,0.0362,0.0364,0,0.0377,0,0.0396,0.0418,0.0418,0,0,0,0.0256,0.0244,0.0273,0.0221,0.0253,0.0337,0.03,0.0359,0.0366,0.0372,0.0379,0.0382,0.0397,0.0419,0.0419,0.047,0.047,0,0,0.0251,0.023,0.0269,0.0277,0.0275,0.0297,0.0302,0.0364,0.0365,0.0379,0.0384,0.0398,0.0419,0.0419,0.047,0.047,0,0,0,0.0235,0.0227,0.0255,0.0273,0.0291,0.0299,0.0306,0.0363,0.0374,0.0385,0.0399,0.0419,0.042,0.0469,0.047,0.0378,0,0,0,0.0232,0.0217,0.0252,0.024,0.029,0.0331,0.0303,0.037,0.0377,0.0399,0.0419,0.0421,0.0469,0.0469,0.038,0.0319,0,0,0,0.0216,0.0216,0.0227,0.0239,0.0275,0.0331,0.0345,0.0372,0.0386,0.0418,0.0421,0.0469,0.0469,0.0382,0.0323,0.0292,0,0,0,0.019,0.0196,0.0226,0.023,0.0274,0.03,0.0345,0.0373,0.0397,0.042,0.0469,0.047,0.0383,0.0326,0.0295,0.0214,0,0,0,0.0181,0.0195,0.0195,0.0223,0.0218,0.0289,0.0287,0.0344,0.0404,0.0447,0.0449,0.038,0.0324,0.0293,0.0232,0,0,0,0,0.018,0.0175,0.0182,0.0185,0.0217,0.0222,0.0292,0.0331,0.0384,0.0421,0.0411,0.0379,0.0362,0.0325,0.0471,0.0471,0.0471,0.0471,0.0471,0.0123,0.0134,0.0112,0.0124,0.0131,0.0184,0.0206,0.0275,0.0341,0.0362,0.0328,0.0272,0.0233,0.0369,0.0369,0.0368,0.0368,0.0368,0.0367,0.0078,0.0067,0.0045,0.0034,0.0035,0.0041,0.0107,0.0165,0.0214,0.0282,0.0271,0.0261,0.0359,0.0361,0.0362,0.0363,0.0364,0.0364,0.0365,0.0054,0.0047,0.003,-0.0024,-0.0072,-0.0051,-0.0083,0.0004,0.0113,0.0108,0.0096,0.0212,0.0192,0.0112,0.0112,0.0111,0.0111,0.0111,0.011,0.0047,0.0024,-0.0026,-0.0085,-0.0149,-0.0203,-0.0185,-0.0165,-0.0065,-0.0026,0.008,0.0186,0.0194,0.0179,0.0104,0.0105,0.0106,0.0106,0.0107,0.0032,0.0029,-0.0047,-0.0117,-0.0277,-0.0335,-0.0333,-0.0306,-0.0286,-0.0243,-0.0082,-0.0071,-0.0047,-0.0033,-0.0055,-0.0203,-0.0205,-0.0206,0,0.0024,0.0015,-0.0083,-0.0215,-0.0364,-0.0423,-0.0468,-0.0438,-0.0317,-0.0306,-0.0246,-0.0064,-0.0055,-0.0025,-0.0015,-0.004,0,0,0,-0.001,-0.0022,-0.01,-0.0217,-0.0413,-0.0478,-0.048,-0.0469,-0.0334,-0.0358,-0.0241,-0.0231,-0.0076,0.0085,0.0148,0.0158,0.0138,0,0]}]]